sat.trackr.live / text

‹ back to catalog

STARLINK-36622

NORAD 67667 · 2026-022V

PAYLOAD ACTIVE UNKNOWN

§ Identity

Operator
Country
US
Launch date
2026-02-02
Launch site
AFWTR
Launch vehicle
Mass (kg)
RCS (m²)

Purposes: comms

External: N2YO · Heavens-Above · Gunter

§ Orbital elements

Epoch: 2026-05-24T23:40:48.446976Z

Period
93.90 min
Inclination
97.2856°
Eccentricity
0.0001943
Mean motion
15.33465023 rev/d
Perigee alt
464.2 km
Apogee alt
466.8 km
Semi-major
6,843.6 km
B*
6.2715e-4
RAAN
178.2182°
Arg perigee
129.2269°
Mean anomaly
230.9147°
Rev number
1,726

§ Raw data

STARLINK-366221 67667U 26022V   26144.98667184  .00020239  00000+0  62715-3 0  99992 67667  97.2856 178.2182 0001943 129.2269 230.9147 15.33465023 17262

JSON: /api/v1/satellites/67667 · /tle

For live sub-satellite position, see the globe view (requires WebGL).

§ Visibility from observer

Set your observer location to see the next 7 days of passes ≥ 10°. The values pass through the URL so the page stays shareable.

No JS? Fill the form by hand. The geolocation button needs JavaScript.